Location: Clanezzo
(45.7500°N, 9.6000°E)
Time: 14:14:23
(UTC+00:00)

Daily predictions for brighter satellites

Satellite Brightness Start Highest point End
(mag) Time Altitude Azimuth Time Altitude Azimuth Time Altitude Azimuth
Cosmos 1553 Rocket 4.0 18:05:37 10° S 18:11:40 83° E 18:17:47 10° N
STARLINK-1237 3.6 18:10:06 10° SW 18:14:05 61° SE 18:18:06 10° ENE
STARLINK-1083 3.7 18:11:08 10° NW 18:15:12 67° NNE 18:19:15 10° ESE
STARLINK-1209 3.4 18:14:04 10° WSW 18:16:58 55° NNW 18:19:51 10° NE
Cosmos 1939 Rocket 3.8 18:13:17 10° S 18:17:10 53° W 18:21:02 10° NNW
KORONAS-FOTON 3.7 18:13:50 10° N 18:17:42 83° E 18:21:29 10° S
Cosmos 1943 Rocket 3.4 18:13:42 10° N 18:18:08 24° NE 18:22:32 10° E
STARLINK-1202 3.6 18:14:47 10° SW 18:18:49 66° SE 18:22:51 10° ENE
STARLINK-1228 3.4 18:16:17 10° WSW 18:19:07 53° NNW 18:21:57 10° NE
ATLAS 2AS CENTAUR R/B 4.5 18:13:15 10° NW 18:19:16 23° NNE 18:25:00 10° ENE
STARLINK-1125 3.7 18:15:42 10° WNW 18:19:47 71° NNE 18:23:50 10° ESE
SL-14 R/B 3.9 18:17:57 10° N 18:21:45 37° ENE 18:25:29 10° SE
Cosmos 1980 4.1 18:17:24 10° SSW 18:23:04 73° WNW 18:28:47 10° NNE
SL-8 R/B 4.0 18:19:32 10° W 18:24:17 63° N 18:29:02 10° ENE
STARLINK-1109 3.6 18:20:27 10° WNW 18:24:32 75° NNE 18:28:37 10° ESE
ERBS 4.2 18:22:45 10° W 18:25:45 29° NNW 18:28:47 10° NE
STARLINK-1246 3.6 18:21:48 10° SW 18:25:53 74° SE 18:29:58 10° ENE
Cosmos 2315 Rocket 4.4 18:22:07 10° SSE 18:27:57 42° E 18:33:51 10° NNE
Cosmos 1766 3.3 18:24:18 10° S 18:28:16 90° SSW 18:32:18 10° N
STARLINK-1091 3.6 18:25:15 10° WNW 18:29:21 80° NNE 18:33:19 11° ESE
Orbus 7S? 4.0 18:27:12 10° WNW 18:29:58 33° SW 18:32:11 10° SSE
STARLINK-67 4.1 18:29:02 10° W 18:31:22 30° NNW 18:33:43 10° NE
STARLINK-1066 3.2 18:28:32 10° WNW 18:31:40 62° SW 18:34:47 10° SE
STARLINK-1201 3.4 18:28:29 10° WSW 18:31:43 62° NNW 18:34:59 10° NE
ADEOS Rocket 3.6 18:25:05 10° N 18:31:53 69° WNW 18:37:55 10° SSW
STARLINK-1081 3.2 18:29:02 10° WNW 18:32:07 61° SW 18:35:11 10° SE
USA 234 3.7 18:26:03 10° ENE 18:32:09 40° SE 18:38:13 10° SSW
STARLINK-1070 3.2 18:29:29 10° WNW 18:32:34 61° SW 18:35:38 10° SE
Meteor 2-8 Rocket 4.4 18:26:53 10° S 18:32:58 68° E 18:39:04 10° NNE
STARLINK-1069 3.3 18:29:54 10° WNW 18:33:01 60° SW 18:36:06 10° SE
STARLINK-1224 3.5 18:29:02 10° SW 18:33:05 83° SSE 18:37:10 10° ENE
STARLINK-1085 3.3 18:30:21 10° WNW 18:33:28 60° SW 18:36:32 10° SE
STARLINK-1086 3.3 18:30:50 10° WNW 18:33:55 59° SW 18:36:56 10° SE
Cosmos 1626 2.4 18:30:42 10° N 18:34:17 46° ENE 18:37:51 10° SSE
STARLINK-1095 3.3 18:31:17 10° WNW 18:34:22 58° SW 18:37:22 10° SE
STARLINK-1203 3.5 18:30:44 10° WSW 18:34:43 89° NNW 18:38:43 10° ENE
H-2A R/B 2.1 18:29:34 10° SSE 18:34:48 61° ENE 18:39:55 10° N
STARLINK-1077 3.3 18:31:44 10° WNW 18:34:49 58° SW 18:37:48 11° SE
STARLINK-1075 3.3 18:32:11 10° WNW 18:35:16 57° SW 18:38:14 11° SE
STARLINK-1093 3.3 18:32:36 10° WNW 18:35:42 57° SW 18:38:42 11° SE
HJ-1C 3.7 18:32:36 10° S 18:35:55 68° W 18:39:17 10° NNW
STARLINK-1074 3.4 18:33:04 10° WNW 18:36:10 56° SW 18:39:08 11° SE
STARLINK-1087 3.4 18:33:32 10° WNW 18:36:36 55° SW 18:39:31 11° SE
SL-16 R/B 2.3 18:31:31 10° S 18:37:00 54° ESE 18:42:31 10° NE
STARLINK-1088 3.4 18:34:00 10° WNW 18:37:04 55° SW 18:39:58 11° SE
STARLINK-1115 3.4 18:34:25 10° WNW 18:37:31 55° SW 18:40:27 11° SE
STARLINK-1225 3.5 18:33:39 10° WSW 18:37:43 88° SSE 18:41:49 10° ENE
STARLINK-1076 3.4 18:34:52 10° WNW 18:37:58 54° SW 18:40:53 11° SE
STARLINK-1092 3.4 18:35:19 10° WNW 18:38:25 54° SW 18:41:18 11° SE
STARLINK-1080 3.4 18:35:48 10° WNW 18:38:52 53° SW 18:41:42 11° SE
STARLINK-1090 3.4 18:36:15 10° WNW 18:39:19 52° SW 18:42:08 12° SE
SL-08 RB Rocket 4.3 18:35:18 10° SE 18:39:28 38° ENE 18:43:43 10° N
STARLINK-1072 3.5 18:35:34 10° WNW 18:39:37 87° SSW 18:43:08 13° SE
STARLINK-1089 3.5 18:36:42 10° WNW 18:39:45 52° SW 18:42:33 12° SE
STARLINK-1107 3.5 18:37:10 10° WNW 18:40:13 51° SW 18:43:00 12° SE
Resurs 01 Rocket 3.1 18:38:55 13° ESE 18:41:23 19° ENE 18:44:31 10° NNE
STARLINK-1230 3.6 18:38:24 10° WSW 18:42:28 86° NNW 18:46:34 10° ENE
STARLINK-1096 3.6 18:39:56 10° WNW 18:43:58 82° SSW 18:47:19 15° SE
STARLINK-1144 4.5 18:40:48 10° NW 18:44:45 40° NNE 18:47:59 14° E
STARLINK-1233 3.8 18:42:09 10° W 18:45:11 47° NNW 18:48:15 10° NE
FREGAT/IRIS 2.3 18:42:49 10° SSE 18:45:30 64° ENE 18:48:13 10° N
STARLINK-1212 3.8 18:42:37 10° W 18:45:39 46° NNW 18:48:41 10° NE
STARLINK-1105 3.9 18:43:03 10° W 18:46:05 46° NNW 18:49:09 10° NE
STARLINK-1206 3.9 18:43:33 10° W 18:46:35 46° NNW 18:49:36 10° NE
STARLINK-1247 3.9 18:44:00 10° W 18:47:00 45° NNW 18:50:02 10° NE
STARLINK-1243 3.6 18:43:13 10° WSW 18:47:17 81° NNW 18:51:23 10° ENE
STARLINK-1227 3.9 18:44:25 10° W 18:47:27 45° NNW 18:50:30 10° NE
STARLINK-1218 3.9 18:44:54 10° W 18:47:55 45° NNW 18:50:57 10° NE
Cosmos 1302 Rocket 4.1 18:42:50 10° NNW 18:48:05 64° ENE 18:53:20 10° SSE
Abrixas rocket 3.2 18:45:40 10° SSW 18:48:07 24° SE 18:49:07 20° ESE
STARLINK-1226 3.9 18:45:21 10° W 18:48:22 44° NNW 18:51:24 10° NE
STARLINK-1254 3.9 18:45:47 10° W 18:48:48 44° NNW 18:51:51 10° NE
STARLINK-1079 3.6 18:44:58 10° WNW 18:49:01 76° SW 18:52:10 16° SE
STARLINK-1215 3.9 18:46:16 10° W 18:49:16 44° NNW 18:52:18 10° NE
STARLINK-1231 3.9 18:46:42 10° W 18:49:42 44° NNW 18:52:43 10° NE
STARLINK-1103 4.4 18:45:46 10° NW 18:49:44 42° NNE 18:52:45 16° E
Cosmos 1953 3.5 18:47:34 13° SE 18:50:05 23° E 18:53:14 10° NE
STARLINK-1232 4.0 18:47:38 10° W 18:50:37 43° NNW 18:53:38 10° NE
Cosmos 304 Rocket 4.2 18:45:59 10° NNW 18:50:44 63° WSW 18:55:27 10° S
SeaSat 1 4.5 18:46:42 10° N 18:51:01 31° NW 18:55:19 10° WSW
STARLINK-1217 4.0 18:48:05 10° W 18:51:05 43° NNW 18:54:05 10° NE
Cosmos 1709 Rocket 3.9 18:45:01 10° N 18:51:14 74° E 18:57:22 10° SSE
STARLINK-1208 4.0 18:48:30 10° W 18:51:31 43° NNW 18:54:33 10° NE
STARLINK-1229 4.0 18:48:59 10° W 18:51:59 42° NNW 18:54:59 10° NE
STARLINK-1236 3.7 18:48:00 10° WSW 18:52:04 76° NNW 18:56:10 10° ENE
STARLINK-1271 4.0 18:49:26 10° W 18:52:26 42° NNW 18:55:26 10° NE
STARLINK-1270 4.0 18:49:54 10° W 18:52:54 42° NNW 18:55:54 10° NE
STARLINK-1154 4.0 18:50:22 10° W 18:53:21 41° NNW 18:56:20 10° NE
STARLINK-1116 3.7 18:49:24 10° WNW 18:53:26 71° SW 18:56:26 17° SE
Cosmos 1269 Rocket 4.0 18:48:35 10° SSW 18:53:52 89° ESE 18:59:13 10° NNE
MONITOR-E 3.6 18:51:23 10° SSE 18:54:01 81° ENE 18:56:40 10° N
STARLINK-1197 4.1 18:51:16 10° W 18:54:15 41° NNW 18:57:15 10° NE
STARLINK-1189 4.1 18:51:43 10° W 18:54:42 41° NNW 18:57:41 10° NE
STARLINK-1101 4.3 18:50:45 10° NW 18:54:44 44° NNE 18:57:32 18° E
STARLINK-1187 4.2 18:52:37 10° W 18:55:35 38° NNW 18:58:33 10° NE
STARLINK-1188 4.1 18:52:39 10° W 18:55:36 40° NNW 18:58:35 10° NE
STARLINK-1198 4.1 18:52:39 10° W 18:55:36 40° NNW 18:58:35 10° NE
STARLINK-1235 4.4 18:53:23 10° W 18:56:19 35° NNW 18:59:15 10° NE
STARLINK-1199 4.1 18:54:35 10° W 18:57:34 39° NNW 19:00:34 10° NE
STARLINK-1191 4.1 18:55:03 10° W 18:58:01 39° NNW 19:01:01 10° NE
STARLINK-1210 4.2 18:55:30 10° W 18:58:28 39° NNW 19:01:28 10° NE
STARLINK-1221 4.2 18:55:57 10° W 18:58:55 39° NNW 19:01:55 10° NE
STARLINK-1219 4.2 18:56:24 10° W 18:59:23 39° NNW 19:02:22 10° NE
STARLINK-1102 4.2 18:55:43 10° NW 18:59:44 46° NNE 19:02:19 20° E
STARLINK-1222 4.2 18:56:52 10° W 18:59:50 38° NNW 19:02:49 10° NE
STARLINK-1211 4.2 18:57:20 10° W 19:00:17 38° NNW 19:03:16 10° NE
STARLINK-1214 4.2 18:57:46 10° W 19:00:44 38° NNW 19:03:43 10° NE
ISS -2.7 18:57:37 10° NW 19:00:46 36° NNE 19:02:41 19° ENE
STARLINK-1245 4.2 18:58:15 10° W 19:01:12 37° NNW 19:04:09 10° NE
Cosmos 2251 Rocket 4.2 18:56:56 10° SSE 19:01:35 31° E 19:06:16 10° NE
Cosmos 1455 Rocket 3.7 18:57:19 10° SSW 19:01:35 60° W 19:05:56 10° N
STARLINK-1238 4.2 18:58:39 10° W 19:01:36 38° NNW 19:04:36 10° NE
STARLINK-1269 3.9 18:57:52 10° WSW 19:01:55 67° NNW 19:06:00 10° NE
STARLINK-1205 4.2 18:59:35 10° W 19:02:31 37° NNW 19:05:26 10° NE
Cosmos 2297 3.8 18:56:50 10° NNW 19:02:32 81° WSW 19:08:14 10° SSE
STARLINK-1094 3.9 18:58:41 10° WNW 19:02:41 61° SW 19:05:21 20° SE
STARLINK-1204 4.2 19:00:04 10° W 19:03:00 37° NNW 19:05:54 10° NE
BREEZE-M DEB (TANK) 4.4 18:55:08 10° WNW 19:03:04 55° N 19:05:20 19° ENE
Cosmos 2084 Rocket 4.2 19:00:23 10° NNW 19:04:37 41° NE 19:06:58 23° E
STARLINK-1111 4.2 19:00:42 10° NW 19:04:44 48° NNE 19:07:06 22° E
Cosmos 2237 Rocket 3.8 19:01:30 10° WSW 19:06:43 38° NW 19:11:58 10° NNE
STARLINK-1200 4.0 19:02:42 10° WSW 19:06:45 63° NNW 19:10:48 10° NE
STARLINK-1117 4.0 19:03:33 10° WNW 19:07:31 56° SW 19:10:00 21° SE
CZ-2C R/B 3.1 19:04:43 10° NNE 19:09:28 35° E 19:14:08 10° SSE
STARLINK-1073 4.1 19:05:41 10° NW 19:09:45 51° NNE 19:11:53 25° E
Cosmos 1626 Rocket 3.5 19:05:38 10° N 19:10:04 84° E 19:14:26 10° S
STARLINK-1192 4.1 19:07:28 10° WSW 19:11:30 59° NNW 19:15:24 11° NE
STARLINK-1078 4.1 19:08:00 10° WNW 19:11:57 52° SW 19:14:17 22° SSE
BREEZE-M DEB (TANK) 4.4 19:03:50 10° WNW 19:12:54 33° SW 19:15:44 12° S
STARLINK-1121 4.0 19:10:39 10° NW 19:14:43 54° NNE 19:16:39 28° E
ARGOS 3.4 19:09:48 10° S 19:15:13 74° WSW 19:20:37 10° NNW
Cosmos 292 Rocket 4.1 19:11:42 10° N 19:16:21 47° ENE 19:18:32 28° ESE
STARLINK-1244 4.2 19:12:25 10° WSW 19:16:27 56° NNW 19:20:08 12° NE
STARLINK-1108 4.2 19:12:53 10° WNW 19:16:48 48° SW 19:18:58 23° SSE
Cosmos 1602 Rocket 3.5 19:13:36 10° N 19:18:05 80° E 19:21:45 15° SSE
IRIDIUM 104 4.3 19:14:19 10° N 19:19:30 61° E 19:23:42 16° SSE
STARLINK-1106 3.9 19:15:36 10° NW 19:19:42 57° NNE 19:21:25 31° E
STARLINK-1138 4.3 19:17:03 10° WSW 19:21:04 53° NNW 19:24:34 13° NE
STARLINK-1071 4.4 19:17:33 10° WNW 19:21:26 44° SW 19:23:26 24° SSE
USA 186 3.3 19:19:21 10° SSW 19:22:36 39° W 19:25:48 10° NNW
MOS 1 Rocket 3.8 19:18:47 10° NNE 19:23:53 50° E 19:29:07 10° S
STARLINK-1112 3.8 19:20:36 10° NW 19:24:43 60° NNE 19:26:14 35° E
MetOp-A 4.1 19:21:25 15° SSE 19:25:52 80° ENE 19:31:15 10° NNW
STARLINK-1110 4.5 19:22:03 10° WNW 19:25:52 41° SW 19:27:43 25° SSE
STARLINK-1143 4.4 19:21:59 10° W 19:25:59 50° NNW 19:29:16 14° NE
CZ-2C R/B 3.7 19:22:46 10° S 19:27:42 52° W 19:32:27 10° NNW
IRIDIUM 114 4.2 19:23:26 10° N 19:28:41 74° E 19:32:51 16° S
STARLINK-1128 3.7 19:25:35 10° NW 19:29:42 64° NNE 19:31:01 40° E
Cosmos 1470 3.4 19:27:24 10° SSW 19:31:12 56° WNW 19:35:03 10° N
Cosmos 1437 4.0 19:29:34 10° N 19:31:25 26° NE 19:31:25 26° NE
SPOT 3 Rocket 3.6 19:29:48 14° S 19:34:21 80° WSW 19:39:36 10° NNW
STARLINK-1113 3.7 19:30:33 10° NW 19:34:41 68° NNE 19:35:47 45° E
Cosmos 1825 Rocket 3.8 19:32:49 10° N 19:37:09 49° ENE 19:37:54 44° ESE
IRIDIUM 103 4.2 19:32:36 10° N 19:37:52 88° E 19:42:00 17° S
STARLINK-1119 3.6 19:35:31 10° WNW 19:39:40 73° NNE 19:40:34 52° E
SJ-6B 4.2 19:36:51 10° SSW 19:40:40 39° W 19:44:34 10° NNW
Cosmos 2369 Rocket 2.2 19:35:16 10° NNW 19:40:59 68° ENE 19:43:14 37° SE
Cosmos 1726 2.0 19:42:57 62° E 19:42:57 62° E 19:46:37 10° NNE
STARLINK-1114 3.5 19:40:32 10° WNW 19:44:42 78° NNE 19:45:24 59° E
Cosmos 1758 4.5 19:41:18 10° SSW 19:45:13 45° WNW 19:49:10 10° N
Aureole 2 Rocket 2.3 19:42:29 10° NNW 19:45:56 76° NE 19:45:56 76° NE
Cosmos 1758 Rocket 3.4 19:42:34 10° N 19:46:57 74° E 19:47:54 52° SSE
Cosmos 2263 4.3 19:41:27 10° NNW 19:47:00 56° ENE 19:48:36 42° ESE
NOSS 3-3 (A) 3.9 19:42:40 10° SSW 19:48:21 57° ESE 19:54:42 10° NE
NOSS 3-3 (C) 3.9 19:42:47 10° SSW 19:48:27 57° ESE 19:54:48 10° NE
CZ-2C R/B 4.3 19:44:47 10° N 19:49:29 60° WNW 19:54:06 10° SSW
STARLINK-1130 (DARKSAT) 3.5 19:45:30 10° WNW 19:49:40 83° NNE 19:50:10 68° ESE
Terra 3.7 19:53:53 16° NE 19:53:53 16° NE 19:56:13 10° NNE
Cosmos 1953 Rocket 3.8 19:49:06 10° N 19:53:21 50° ENE 19:53:21 50° ENE
STARLINK-1084 3.4 19:50:28 10° WNW 19:54:38 89° NE 19:54:56 76° ESE
Cosmos 2184 Rocket 3.9 19:49:44 10° N 19:56:07 88° E 19:59:37 28° S
Spot 2 Rocket 3.6 19:55:41 49° ESE 19:56:28 54° ENE 20:01:27 10° N
Cosmos 1606 Rocket 3.4 19:59:07 67° E 19:59:07 67° E 20:03:31 10° NNE
STARLINK-1098 3.4 19:55:28 10° WNW 19:59:38 86° SSW 19:59:43 84° SSE
SPOT 1/Viking Rocket 4.1 20:00:50 40° ENE 20:01:00 40° ENE 20:05:51 10° N
Cosmos 1943 Rocket 2.4 19:56:51 10° NNW 20:02:20 65° WSW 20:04:35 36° S
Cosmos 1943 3.1 20:01:03 33° S 20:03:30 60° ESE 20:09:05 10° NNE
STARLINK-1123 3.5 20:00:26 10° WNW 20:04:30 79° SW 20:04:30 79° SW
Meteor 2-10 4.1 20:00:44 13° SSW 20:05:33 81° W 20:11:08 10° N
SL-8 R/B 3.6 20:02:19 10° WNW 20:07:07 80° NNE 20:07:34 71° ENE
STARLINK-1097 3.7 20:05:25 10° WNW 20:09:16 70° WSW 20:09:16 70° WSW
ATLAS 2AS CENTAUR R/B 3.3 20:04:44 10° NNW 20:12:12 50° NE 20:14:21 39° E
STARLINK-1099 3.9 20:10:24 10° WNW 20:14:04 61° W 20:14:04 61° W
H-2A R/B 4.5 20:10:51 10° SW 20:14:35 19° W 20:18:18 10° NW
USA 234 3.5 20:08:54 10° NE 20:15:24 70° NNW 20:21:54 10° WSW
USA 245 3.9 20:15:17 69° ESE 20:15:39 73° ENE 20:21:27 10° N
Cosmos 2154 Rocket 3.9 20:10:50 10° N 20:17:14 83° E 20:18:59 51° SSE
Resurs 01 Rocket 2.4 20:16:27 40° SW 20:17:32 49° W 20:21:49 10° NNW
STARLINK-1104 4.2 20:15:24 10° WNW 20:18:51 54° W 20:18:51 54° W
Cosmos 1328 4.3 20:17:09 10° N 20:20:25 56° NNW 20:20:25 56° NNW
SL-16 R/B 4.2 20:16:37 10° WSW 20:21:26 28° NW 20:26:17 10° N
Cosmos 2228 3.2 20:22:39 67° NW 20:22:39 67° NW 20:26:35 10° N
Cosmos 967 Rocket 4.4 20:17:09 10° SSW 20:23:36 87° SE 20:30:08 10° NE
STARLINK-1144 4.4 20:20:24 10° WNW 20:23:38 47° W 20:23:38 47° W
Cosmos 1953 4.2 20:23:07 11° SW 20:26:20 29° WNW 20:29:50 10° NNW
Cosmos 962 Rocket 4.3 20:25:18 10° N 20:31:30 68° E 20:31:43 67° E
Nadezhda 1 Rocket 4.1 20:29:47 31° SSW 20:33:04 76° W 20:39:29 10° N
SL-8 Rocket 4.3 20:31:17 10° N 20:37:01 51° ENE 20:37:01 51° ENE
ISS -1.2 20:34:25 10° WNW 20:35:39 21° WNW 20:35:39 21° WNW
Cosmos 2058 Rocket 4.3 20:42:37 38° N 20:42:37 38° N 20:45:26 10° N
SPOT 5 4.0 20:44:25 33° N 20:44:25 33° N 20:46:58 10° N
Cosmos 1603 4.2 20:37:18 10° SW 20:42:49 57° WNW 20:48:22 10° NNE
ERS-1 Rocket 3.4 20:48:38 56° N 20:48:38 56° N 20:52:37 10° NNW
Landsat 7 4.3 20:49:40 57° NW 20:49:40 57° NW 20:53:36 10° NNW
CZ-2C R/B 4.1 20:45:07 10° N 20:49:42 33° WNW 20:54:16 10° SW
Cosmos 1656 Rocket 4.1 20:56:56 10° NNW 21:02:03 57° W 21:02:03 57° W
Aureole 1 Rocket 4.3 21:01:50 48° SSW 21:04:20 83° WNW 21:10:59 10° NNE
COSMOS 2455 3.4 21:10:15 10° NNW 21:15:09 52° NNE 21:15:09 52° NNE
Cosmos 2341 Rocket 4.4 21:16:33 10° NNW 21:22:43 57° W 21:22:43 57° W
Cosmos 2369 Rocket 4.1 21:20:27 10° NW 21:24:24 20° W 21:25:03 19° WSW
Terra 3.5 21:32:45 31° NNW 21:32:45 31° NNW 21:35:15 10° NNW
NOSS 3-4 (A) 3.9 21:23:39 10° NW 21:30:09 72° W 21:30:09 72° W
NOSS 3-4 (C) 3.9 21:23:45 10° NW 21:30:14 72° W 21:30:14 72° W
USA 234 4.5 21:51:58 10° NE 21:57:51 37° NNW 22:03:43 10° WNW
ATLAS 2AS CENTAUR R/B 3.7 21:56:06 10° NW 22:01:48 41° W 22:01:48 41° W
Cosmos 1697 Rocket 4.5 22:07:11 10° NNW 22:10:12 26° NNE 22:10:12 26° NNE
Mayak 1.9 22:15:19 10° N 22:15:32 11° N 22:15:32 11° N
Cosmos 1980 Rocket 4.2 22:32:47 10° N 22:35:28 23° NNE 22:35:28 23° NNE
CZ-4C R/B 3.9 22:32:16 10° NNW 22:38:36 37° NE 22:38:44 37° NE
SL-16 R/B 4.1 23:52:44 30° NE 23:52:44 30° NE 23:57:14 10° N
